Tracking 29892 objects as of 21-Nov-2024
HD Live streaming from Space Station
objects crossing your sky now

STARLINK-5447

Track STARLINK-5447 now!
10-day predictions
STARLINK-5447 is classified as:


NORAD ID: 54779
Int'l Code: 2022-175X
Perigee: 545.4 km
Apogee: 548.4 km
Inclination: 53.2 °
Period: 95.4 minutes
Semi major axis: 6917 km
RCS: Unknown
Launch date: December 17, 2022
Source: United States (US)
Launch site: AIR FORCE EASTERN TEST RANGE (AFETR)
Your satellite tracking list
Your tracking list is empty




NASA's NSSDC Master Catalog

Two Line Element Set (TLE):
1 54779U 22175X   24326.11014982  .00000197  00000-0  30464-4 0  9990
2 54779  53.2178 355.2011 0002115  90.9055 269.2180 15.08834904106472
Source of the keplerian elements: AFSPC